Chillicothe, MO

11:45 AM CST on November 24, 2017 (GMT -0600)
Chillicothe

Weather History for KCDJ - April, 2013

Change the Weather History Date:

Friday, April 5, 2013

  Actual Average (KIRK) Record (KIRK)
Temperature  
Mean Temperature 52 °F -  
Max Temperature 69 °F 56 °F 80 °F (1942)
Min Temperature 37 °F 35 °F 8 °F (1920)
Degree Days  
Heating Degree Days 14    
Growing Degree Days 2 (Base 50)    
Moisture  
Dew Point 36 °F    
Average Humidity 53    
Maximum Humidity 79    
Minimum Humidity 34    
Precipitation  
Precipitation 0.00 in - - ()
Sea Level Pressure  
Sea Level Pressure 30.08 in    
Wind  
Wind Speed 7 mph (ESE)    
Max Wind Speed 13 mph    
Max Gust Speed 22 mph    
Averages and records for this station are not official NWS values.
T = Trace of Precipitation, MM = Missing Value Source: NWS Daily Summary

Daily Weather History Graph

Daily Weather History Graph

Search for Another Location

Airport or City:

Trip Planner

Search our weather history database for the weather conditions in past years. The results will help you decide how hot, cold, wet, or windy it might be!

Date:

Astronomy

Apr. 05, 2013 Rise Set
Actual Time 6:51 AM CDT 7:42 PM CDT
Civil Twilight 6:24 AM CDT 8:10 PM CDT
Nautical Twilight 5:51 AM CDT 8:42 PM CDT
Astronomical Twilight 5:18 AM CDT 9:16 PM CDT
Moon 3:58 AM CDT (4/5) 3:07 PM CDT (4/5)
Length of Visible Light 13h 46m
Length of Day
12h 51m
Waning Crescent, 23% of the Moon is Illuminated
Apr 5
Waning Crescent
Apr 10
New
Apr 18
First Quarter
Apr 25
Full
May 2
Last Quarter

Hourly Weather History & Observations

Time (CDT) Temp. Windchill Dew Point Humidity Pressure Visibility Wind Dir Wind Speed Gust Speed Precip Events Conditions
12:52 AM 46.9 °F - 32.0 °F 56% 30.12 in - North 6.9 mph - N/A   Unknown
1:52 AM 44.1 °F 41.5 °F 33.1 °F 65% 30.13 in - North 4.6 mph - N/A   Unknown
2:52 AM 45.0 °F 42.6 °F 34.0 °F 65% 30.14 in - North 4.6 mph - N/A   Unknown
3:52 AM 41.0 °F 38.0 °F 33.1 °F 73% 30.15 in - North 4.6 mph - N/A   Unknown
4:52 AM 43.0 °F 40.3 °F 33.1 °F 68% 30.16 in - North 4.6 mph - N/A   Unknown
5:52 AM 39.9 °F 35.8 °F 32.0 °F 73% 30.16 in - North 5.8 mph - N/A   Unknown
6:52 AM 37.9 °F 32.7 °F 32.0 °F 79% 30.18 in - North 6.9 mph - N/A   Unknown
7:52 AM 41.0 °F 38.0 °F 33.1 °F 73% 30.20 in - NNE 4.6 mph - N/A   Unknown
8:52 AM 45.0 °F 41.2 °F 34.0 °F 65% 30.22 in - ENE 6.9 mph - N/A   Unknown
9:52 AM 48.9 °F - 33.1 °F 54% 30.22 in - East 10.4 mph - N/A   Unknown
10:52 AM 53.1 °F - 34.0 °F 48% 30.21 in - SE 8.1 mph - N/A   Unknown
11:52 AM 55.9 °F - 35.1 °F 45% 30.18 in - ESE 8.1 mph - N/A   Unknown
12:52 PM 59.0 °F - 35.1 °F 41% 30.15 in - SSE 9.2 mph - N/A   Unknown
1:52 PM 62.1 °F - 37.0 °F 39% 30.11 in - SSE 6.9 mph - N/A   Unknown
2:52 PM 64.9 °F - 39.0 °F 39% 30.07 in - SSW 10.4 mph - N/A   Unknown
3:52 PM 66.9 °F - 39.9 °F 37% 30.03 in - SSE 10.4 mph - N/A   Unknown
4:52 PM 66.9 °F - 37.9 °F 34% 30.00 in - SSE 12.7 mph - N/A   Unknown
5:52 PM 66.9 °F - 39.0 °F 36% 29.97 in - South 11.5 mph 21.9 mph N/A   Unknown
6:52 PM 64.9 °F - 39.0 °F 39% 29.96 in - South 8.1 mph - N/A   Unknown
7:52 PM 63.0 °F - 39.9 °F 43% 29.95 in - SSE 6.9 mph - N/A   Unknown
8:52 PM 61.0 °F - 41.0 °F 48% 29.94 in - SSE 6.9 mph - N/A   Unknown
9:52 PM 61.0 °F - 41.0 °F 48% 29.94 in - SSE 8.1 mph - N/A   Unknown
10:52 PM 59.0 °F - 41.0 °F 51% 29.92 in - SSE 8.1 mph - N/A   Unknown
11:52 PM 57.9 °F - 41.0 °F 53% 29.90 in - SSE 8.1 mph - N/A   Unknown